FW0225 Weather Reports


Display with metric or nautical units.
time (UTC)temp
F
wind
direction
speed
MPH
gust
MPH
rain 1hr
in
rain 24hr
in
rain mn
in
humidity
%
barometer
mb
20260503192518 55 236 0.0 0.0 0.00 0.00 0.00 72 1016.9
20260503192019 56 236 0.0 0.0 0.00 0.00 0.00 72 1016.8
20260503191523 56 236 0.0 0.0 0.00 0.00 0.00 72 1016.8
20260503191026 56 236 0.0 0.0 0.00 0.00 0.00 72 1016.7
20260503190549 57 236 0.0 0.0 0.00 0.00 0.00 71 1016.7
20260503190022 57 236 0.0 0.0 0.00 0.00 0.00 71 1016.6
20260503185526 57 236 0.0 1.0 0.00 0.00 0.00 70 1016.6
20260503185025 58 236 0.0 1.0 0.00 0.00 0.00 70 1016.6
20260503184527 58 236 0.0 0.0 0.00 0.00 0.00 70 1016.5
20260503184027 58 236 0.0 1.0 0.00 0.00 0.00 69 1016.4
20260503183549 59 236 1.0 1.0 0.00 0.00 0.00 69 1016.5
20260503183019 59 236 0.0 1.0 0.00 0.00 0.00 69 1016.5
20260503182523 59 236 0.0 1.0 0.00 0.00 0.00 68 1016.4
20260503182024 60 236 0.0 1.0 0.00 0.00 0.00 68 1016.4
20260503181528 60 236 0.0 2.0 0.00 0.00 0.00 68 1016.5
20260503181049 60 236 0.0 2.0 0.00 0.00 0.00 68 1016.5
20260503180530 61 236 1.0 2.0 0.00 0.00 0.00 68 1016.5
20260503180021 61 236 0.0 2.0 0.00 0.00 0.00 67 1016.4
20260503175525 61 236 1.0 2.0 0.00 0.00 0.00 67 1016.4
20260503175025 61 236 1.0 2.0 0.00 0.00 0.00 66 1016.5
20260503174512 62 236 0.0 1.0 0.00 0.00 0.00 67 1016.4
20260503174011 62 236 0.0 1.0 0.00 0.00 0.00 67 1016.4
20260503173535 62 236 0.0 0.0 0.00 0.00 0.00 66 1016.4
20260503173026 63 236 0.0 0.0 0.00 0.00 0.00 66 1016.4
20260503172527 63 236 0.0 2.0 0.00 0.00 0.00 66 1016.3
20260503172027 63 236 1.0 2.0 0.00 0.00 0.00 65 1016.4
20260503171528 63 236 0.0 2.0 0.00 0.00 0.00 66 1016.4
20260503171029 64 236 0.0 2.0 0.00 0.00 0.00 65 1016.4
20260503170513 64 236 1.0 2.0 0.00 0.00 0.00 63 1016.4
20260503150551 76 203 4.0 8.0 0.00 0.00 0.00 38 1016.4
20260503131015 78 228 5.0 9.0 0.00 0.00 0.00 35 1017.1
20260503130519 78 243 4.0 9.0 0.00 0.00 0.00 35 1017.0
20260503110514 76 221 3.0 9.0 0.00 0.00 0.00 42 1017.7
20260503081530 68 59 1.0 2.0 0.00 0.00 0.00 58 1018.9
20260503081048 67 55 1.0 3.0 0.00 0.00 0.00 59 1019.0
20260503080530 66 53 1.0 3.0 0.00 0.00 0.00 60 1019.0
20260503072518 61 47 3.0 5.0 0.00 0.00 0.00 68 1019.1
20260503072017 60 45 4.0 5.0 0.00 0.00 0.00 70 1019.1
20260503071539 60 53 4.0 6.0 0.00 0.00 0.00 69 1019.2
20260503071018 59 51 4.0 6.0 0.00 0.00 0.00 68 1019.3
20260503070526 59 50 3.0 6.0 0.00 0.00 0.00 70 1019.3
20260503055025 51 42 4.0 6.0 0.00 0.00 0.00 81 1019.5
20260503054528 51 41 4.0 6.0 0.00 0.00 0.00 82 1019.5
20260503054013 50 38 5.0 6.0 0.00 0.00 0.00 82 1019.5
20260503053517 50 34 4.0 6.0 0.00 0.00 0.00 83 1019.5
20260503053029 49 29 4.0 6.0 0.00 0.00 0.00 84 1019.6
20260503052533 49 17 4.0 6.0 0.00 0.00 0.00 84 1019.6
20260503052013 48 355 4.0 6.0 0.00 0.00 0.00 85 1019.6
20260503051515 48 335 4.0 6.0 0.00 0.00 0.00 85 1019.6
20260503051013 48 319 4.0 6.0 0.00 0.00 0.00 85 1019.7
20260503050516 47 307 4.0 5.0 0.00 0.00 0.00 86 1019.7
20260503050049 47 298 3.0 4.0 0.00 0.00 0.00 86 1019.7
20260503045533 47 294 3.0 4.0 0.00 0.00 0.00 87 1019.7
20260503045031 46 292 2.0 4.0 0.00 0.00 0.00 87 1019.7
20260503044514 46 290 2.0 4.0 0.00 0.00 0.00 87 1019.7
20260503044014 45 289 2.0 4.0 0.00 0.00 0.00 88 1019.7
20260503043538 45 288 1.0 5.0 0.00 0.00 0.00 88 1019.7
20260503043048 45 287 1.0 5.0 0.00 0.00 0.00 87 1019.7
20260503042512 45 286 2.0 4.0 0.00 0.00 0.00 87 1019.7
20260503042012 45 286 0.0 3.0 0.00 0.00 0.00 87 1019.7
20260503041517 45 286 2.0 3.0 0.00 0.00 0.00 87 1019.7
20260503041020 45 286 2.0 4.0 0.00 0.00 0.00 87 1019.7
20260503040523 45 286 3.0 4.0 0.00 0.00 0.00 87 1019.7
20260503040015 45 284 2.0 4.0 0.00 0.00 0.00 87 1019.7
20260503035539 45 283 2.0 3.0 0.00 0.00 0.00 87 1019.7
20260503035017 45 283 0.0 2.0 0.00 0.00 0.00 87 1019.6
20260503034521 45 283 1.0 3.0 0.00 0.00 0.00 87 1019.6
20260503034043 46 283 1.0 3.0 0.00 0.00 0.00 87 1019.6
20260503033544 45 283 2.0 4.0 0.00 0.00 0.00 87 1019.6
20260503033032 45 282 1.0 5.0 0.00 0.00 0.00 87 1019.6
20260503032513 45 281 3.0 5.0 0.00 0.00 0.00 86 1019.7
20260503032030 45 277 4.0 6.0 0.00 0.00 0.00 86 1019.6
20260503031532 46 272 2.0 4.0 0.00 0.00 0.00 86 1019.7
20260503031031 46 271 2.0 4.0 0.00 0.00 0.00 86 1019.6
20260503030513 46 270 1.0 4.0 0.00 0.00 0.00 86 1019.7
20260503030024 46 270 1.0 4.0 0.00 0.00 0.00 86 1019.7
20260503025548 46 269 1.0 6.0 0.00 0.00 0.00 86 1019.7
20260503025027 46 269 3.0 6.0 0.00 0.00 0.00 86 1019.7
20260503024531 46 267 1.0 3.0 0.00 0.00 0.00 86 1019.7
20260503024016 46 267 1.0 3.0 0.00 0.00 0.00 85 1019.7
20260503023518 46 267 2.0 3.0 0.00 0.00 0.00 85 1019.7
20260503023052 46 266 1.0 2.0 0.00 0.00 0.00 85 1019.7
20260503022513 46 266 0.0 2.0 0.00 0.00 0.00 85 1019.6
20260503022014 47 266 0.0 2.0 0.00 0.00 0.00 85 1019.7
20260503021518 47 266 1.0 4.0 0.00 0.00 0.00 85 1019.7
20260503021016 47 266 2.0 4.0 0.00 0.00 0.00 85 1019.7
20260503020518 47 265 0.0 4.0 0.00 0.00 0.00 85 1019.7
20260503020030 47 265 1.0 6.0 0.00 0.00 0.00 85 1019.7
20260503015514 47 265 2.0 6.0 0.00 0.00 0.00 85 1019.7
20260503015032 47 264 2.0 4.0 0.00 0.00 0.00 85 1019.8
20260503014514 47 263 2.0 3.0 0.00 0.00 0.00 85 1019.8
20260503014015 47 263 1.0 3.0 0.00 0.00 0.00 85 1019.7
20260503013519 47 263 1.0 3.0 0.00 0.00 0.00 85 1019.8
20260503013052 47 263 1.0 3.0 0.00 0.00 0.00 85 1019.9
20260503012514 47 263 1.0 4.0 0.00 0.00 0.00 84 1019.9
20260503012053 47 263 3.0 6.0 0.00 0.00 0.00 84 1019.9
20260503011514 47 259 3.0 6.0 0.00 0.00 0.00 84 1019.9
20260503011017 48 257 0.0 2.0 0.00 0.00 0.00 84 1020.0
20260503010519 48 257 0.0 2.0 0.00 0.00 0.00 84 1020.1
20260503010033 48 257 1.0 4.0 0.00 0.00 0.00 84 1020.1
20260503005515 48 257 2.0 4.0 0.00 0.00 0.00 84 1020.1
20260503005015 48 256 1.0 4.0 0.00 0.00 0.00 84 1020.2
20260503004519 48 254 2.0 4.0 0.00 0.00 0.00 84 1020.2
20260503004021 48 253 2.0 3.0 0.00 0.00 0.00 84 1020.2
20260503003524 48 253 0.0 2.0 0.00 0.00 0.00 84 1020.3
20260503003015 48 253 1.0 2.0 0.00 0.00 0.00 83 1020.3
20260503002540 48 253 0.0 1.0 0.00 0.00 0.00 83 1020.3
20260503002020 48 253 0.0 4.0 0.00 0.00 0.00 83 1020.4
20260503001545 48 253 2.0 4.0 0.00 0.00 0.00 83 1020.4
20260503001023 48 252 1.0 3.0 0.00 0.00 0.00 83 1020.4
20260503000526 49 252 1.0 3.0 0.00 0.00 0.00 83 1020.5
20260503000017 49 252 1.0 2.0 0.00 0.00 0.00 83 1020.5
20260502235523 49 252 0.0 3.0 0.00 0.00 0.00 83 1020.5
20260502235020 49 252 1.0 3.0 0.00 0.00 0.00 82 1020.5
20260502234522 49 252 1.0 3.0 0.00 0.00 0.00 83 1020.5
20260502234021 49 252 1.0 3.0 0.00 0.00 0.00 83 1020.6
20260502233523 49 251 2.0 3.0 0.00 0.00 0.00 83 1020.6
20260502233015 49 251 1.0 4.0 0.00 0.00 0.00 83 1020.7
20260502232537 49 251 1.0 4.0 0.00 0.00 0.00 83 1020.7
20260502232037 49 250 2.0 4.0 0.00 0.00 0.00 83 1020.7
20260502231517 49 250 0.0 3.0 0.00 0.00 0.00 84 1020.8
20260502231017 48 250 1.0 3.0 0.00 0.00 0.00 83 1020.8
20260502230521 48 250 0.0 0.0 0.00 0.00 0.00 83 1020.8
20260502230051 49 250 0.0 0.0 0.00 0.00 0.00 83 1020.9
20260502225533 49 250 0.0 0.0 0.00 0.00 0.00 83 1020.9
20260502225033 49 250 0.0 2.0 0.00 0.00 0.00 83 1020.9
20260502224517 49 250 0.0 2.0 0.00 0.00 0.00 83 1021.0
20260502224013 49 250 0.0 2.0 0.00 0.00 0.00 83 1020.9
20260502223536 49 250 0.0 0.0 0.00 0.00 0.00 83 1020.9
20260502223048 49 250 0.0 0.0 0.00 0.00 0.00 83 1020.9
20260502222532 49 250 0.0 0.0 0.00 0.00 0.00 83 1020.9
20260502222030 49 250 0.0 0.0 0.00 0.00 0.00 82 1021.0
20260502221531 49 250 0.0 0.0 0.00 0.00 0.00 82 1021.0
20260502221029 49 250 0.0 0.0 0.00 0.00 0.00 82 1021.0
20260502220536 50 250 0.0 1.0 0.00 0.00 0.00 82 1021.0
20260502220025 50 250 0.0 1.0 0.00 0.00 0.00 81 1021.0
20260502215528 50 250 0.0 0.0 0.00 0.00 0.00 81 1021.0
20260502215026 50 250 0.0 0.0 0.00 0.00 0.00 81 1020.9
20260502214527 50 250 0.0 0.0 0.00 0.00 0.00 80 1020.9
20260502214026 50 250 0.0 0.0 0.00 0.00 0.00 80 1021.0
20260502213539 50 250 0.0 0.0 0.00 0.00 0.00 80 1021.0
20260502213031 51 250 0.0 0.0 0.00 0.00 0.00 80 1021.0
20260502212533 51 250 0.0 0.0 0.00 0.00 0.00 80 1020.9
20260502212031 51 250 0.0 0.0 0.00 0.00 0.00 79 1020.9
20260502211515 51 250 0.0 0.0 0.00 0.00 0.00 79 1021.0
20260502211014 51 250 0.0 0.0 0.00 0.00 0.00 79 1021.0
20260502210517 51 250 0.0 0.0 0.00 0.00 0.00 79 1020.9
20260502210027 52 250 0.0 0.0 0.00 0.00 0.00 78 1021.0
20260502205530 52 250 0.0 0.0 0.00 0.00 0.00 78 1021.0
20260502205015 52 250 0.0 0.0 0.00 0.00 0.00 78 1021.0
20260502204519 52 250 0.0 0.0 0.00 0.00 0.00 77 1021.0
20260502204040 52 250 0.0 0.0 0.00 0.00 0.00 77 1021.1
20260502203542 52 250 0.0 0.0 0.00 0.00 0.00 77 1021.0
20260502203032 53 250 0.0 1.0 0.00 0.00 0.00 76 1021.0
20260502202517 53 250 0.0 1.0 0.00 0.00 0.00 76 1021.0
20260502202017 53 250 0.0 1.0 0.00 0.00 0.00 76 1021.0
20260502201521 53 250 0.0 0.0 0.00 0.00 0.00 75 1021.0
20260502201040 54 250 0.0 1.0 0.00 0.00 0.00 75 1021.1
20260502200522 54 250 0.0 1.0 0.00 0.00 0.00 74 1021.0
20260502200017 54 250 0.0 1.0 0.00 0.00 0.00 74 1021.0
20260502195542 54 250 0.0 1.0 0.00 0.00 0.00 74 1021.0
20260502195019 54 250 0.0 1.0 0.00 0.00 0.00 74 1020.9
20260502194544 55 250 0.0 1.0 0.00 0.00 0.00 74 1020.9
20260502194021 55 250 0.0 0.0 0.00 0.00 0.00 73 1020.9
20260502193544 55 250 0.0 1.0 0.00 0.00 0.00 73 1020.8
20260502193014 56 250 0.0 1.0 0.00 0.00 0.00 72 1020.8